sat.trackr.live / text

‹ back to catalog

STARLINK-34377

NORAD 64279 · 2025-120Z

PAYLOAD ACTIVE UNKNOWN

§ Identity

Operator
Country
US
Launch date
2025-06-04
Launch site
AFWTR
Launch vehicle
Mass (kg)
RCS (m²)

Purposes: comms

External: N2YO · Heavens-Above · Gunter

§ Orbital elements

Epoch: 2026-05-25T05:00:28.958400Z

Period
93.79 min
Inclination
53.1592°
Eccentricity
0.0001571
Mean motion
15.35398446 rev/d
Perigee alt
458.7 km
Apogee alt
460.8 km
Semi-major
6,837.9 km
B*
9.8637e-4
RAAN
118.9860°
Arg perigee
72.8134°
Mean anomaly
287.3041°
Rev number
5,566

§ Raw data

STARLINK-343771 64279U 25120Z   26145.20866850  .00034180  00000+0  98637-3 0  99922 64279  53.1592 118.9860 0001571  72.8134 287.3041 15.35398446 55662

JSON: /api/v1/satellites/64279 · /tle

For live sub-satellite position, see the globe view (requires WebGL).

§ Visibility from observer

Set your observer location to see the next 7 days of passes ≥ 10°. The values pass through the URL so the page stays shareable.

No JS? Fill the form by hand. The geolocation button needs JavaScript.